Hourly Data Report for October 23, 2015

All times are specified in Local Standard Time (LST). Add 1 hour to adjust for Daylight Saving Time where and when it is observed.

PETAWAWA AWOS 2
ONTARIO

45°57'00.000" N
77°19'00.000" W
130.10 m
6106396
71625
YWA

Download Data

Hourly Data (October 2015)
Hourly Data Report for October 23, 2015
Temp Definition
°C
Dew Point Temp Definition
°C
Rel Hum Definition
%
Wind Dir Definition
10's deg

Wind Spd Definition
km/h
Visibility Definition
km
Stn Press Definition
kPa
Hmdx Definition


Wind Chill Definition


Weather Definition


TIME
00:00 3.3 -3.0 63 32 17 14.5 100.94     LegendNANA
01:00 3.3 -2.9 64 31 15 14.5 101.00     LegendNANA
02:00 3.0 -2.7 66 31 15 14.5 101.06     LegendNANA
03:00 2.1 -3.2 68 35 15 14.5 101.10     LegendNANA
04:00 2.0 -2.5 72 31 13 14.5 101.15     LegendNANA
05:00 1.2 -3.2 72 32 19 14.5 101.23     LegendNANA
06:00 1.4 -3.8 68 32 9 14.5 101.35     LegendNANA
07:00 1.6 -3.9 67 34 20 14.5 101.41     LegendNANA
08:00 1.9 -4.4 63 34 17 14.5 101.46     LegendNANA
09:00 2.9 -3.5 63 33 17 14.5 101.52     LegendNANA
10:00 3.2 -4.0 59 34 17 14.5 101.54     LegendNANA
11:00 4.8 -3.3 56 33 11 14.5 101.51     LegendNANA
12:00 5.3 -3.6 53 34 6 14.5 101.48     LegendNANA
13:00 6.4 -2.8 52 33 9 14.5 101.36     LegendNANA
14:00 7.6 -2.8 48 30 4 14.5 101.26     LegendNANA
15:00 8.4 -2.4 46 4 4 14.5 101.22     LegendNANA
16:00 8.7 -2.9 44 21 4 14.5 101.25     LegendNANA
17:00 6.1 -1.8 57 21 4 14.5 101.21     LegendNANA
18:00 3.1 -1.6 71 19 4 14.5 101.20     LegendNANA
19:00 1.3 -1.7 80 20 4 14.5 101.19     LegendNANA
20:00 1.2 -2.4 77 16 4 14.5 101.18     LegendNANA
21:00 -1.6 -3.3 88   0 14.5 101.18     LegendNANA
22:00 3.8 0.7 80 12 11 14.5 101.17     LegendNANA
23:00 3.7 0.5 80 16 11 14.5 101.13     LegendNANA

Notes on Data Quality.

Legend

  • E = Estimated
  • M = Missing
  • NA = Not Available
  • ‡ = Partner data that is not subject to review by the National Climate Archives
Date modified: